This demonstration page uses our WeatherBlox Daily Observations layout. Learn more.

Left ArrowRight Arrow

31.84235, -102.49876

Hourly Observations for August 12, 2022

Temp ( °F °C ) Dew Point ( °F °C ) Humidity (%) Winds ( mph kmh ) Pressure ( in mb ) Visibility ( mi km ) Precip ( " mm )
12:53 am 00:53 Partly Cloudy 77 25 62 16.7 60 60 NNW 6 9 29.99 1016 10 16 0.00 0.00
1:53 am 01:53 Clear 75 23.9 62 16.7 64 64 NW 5 7 29.98 1015 10 16 0.00 0.00
2:53 am 02:53 Clear 75 23.9 62 16.7 64 64 NNW 6 9 29.97 1015 10 16 0.00 0.00
3:53 am 03:53 Clear 73 22.8 62 16.7 68 68 NNW 8 13 29.97 1015 10 16 0.00 0.00
4:53 am 04:53 Clear 73 22.8 63 17.2 71 71 N 8 13 29.96 1015 10 16 0.00 0.00
5:53 am 05:53 Clear 72 22.2 63 17.2 73 73 NNW 5 7 29.98 1015 10 16 0.00 0.00
6:53 am 06:53 Clear 71 21.7 62 16.7 73 73 N 5 7 29.99 1016 10 16 0.00 0.00
7:53 am 07:53 Partly Cloudy 73 22.8 62 16.7 68 68 NNE 6 9 30.01 1016 10 16 0.00 0.00
8:53 am 08:53 Sunny 79 26.1 58 14.4 49 49 ENE 10 17 30.01 1016 10 16 0.00 0.00
9:53 am 09:53 Sunny 83 28.3 56 13.3 40 40 E 6 9 30.02 1017 10 16 0.00 0.00
10:53 am 10:53 Sunny 87 30.6 55 12.8 34 34 SE 8 13 30.02 1017 10 16 0.00 0.00
11:53 am 11:53 Sunny 90 32.2 56 13.3 32 32 E 10 17 30.01 1016 10 16 0.00 0.00
12:53 pm 12:53 Sunny 93 33.9 55 12.8 28 28 E 10 17 30.00 1016 10 16 0.00 0.00
1:53 pm 13:53 Mostly Sunny 94 34.4 53 11.7 25 25 VRB 6 9 29.98 1015 10 16 0.00 0.00
2:53 pm 14:53 Mostly Sunny 95 35 52 11.1 24 24 undefined N/A 29.96 1015 10 16 0.00 0.00
3:53 pm 15:53 Mostly Sunny 96 35.6 48 8.9 20 20 VRB 7 11 29.93 1014 10 16 0.00 0.00
4:53 pm 16:53 Sunny 96 35.6 45 7.2 17 17 E 7 11 29.91 1013 10 16 0.00 0.00
5:53 pm 17:53 Sunny 96 35.6 42 5.6 16 16 ENE 13 20 29.90 1012 10 16 0.00 0.00
6:53 pm 18:53 Sunny 95 35 41 5 16 16 E 15 24 29.89 1012 10 16 0.00 0.00
7:53 pm 19:53 Sunny 93 33.9 42 5.6 17 17 E 10 17 29.90 1012 10 16 0.00 0.00
8:53 pm 20:53 Clear 89 31.7 41 5 19 19 E 9 15 29.91 1013 10 16 0.00 0.00
9:53 pm 21:53 Clear 86 30 44 6.7 23 23 ENE 9 15 29.93 1014 10 16 0.00 0.00
10:53 pm 22:53 Clear 85 29.4 48 8.9 28 28 ENE 9 15 29.95 1014 10 16 0.00 0.00
11:53 pm 23:53 Clear 82 27.8 49 9.4 32 32 ENE 7 11 29.95 1014 10 16 0.00 0.00

Powered by AerisWeather